Вернуться в каталог

NEXTSAT-1

АктивенНаукаSSO
NORAD 43811·PAYLOAD·🇰🇷 South Korea

Запущен Dec 3, 2018 с Vandenberg Space Force Base

Loading…

Ближайшие Пролёты (ближайшие 24 часа)

TLE

СвежийSource: Space-Track

Эпоха: Sep 14, 2026, 12:34 UTC

1 43811U 18099BF  26257.52412805  .00002087  00000-0  13567-3 0  9995
2 43811  97.3995 297.0954 0012949  36.3698 323.8408 15.08998147425356

Отслеживайте NEXTSAT-1 в реальном времени с AllMySat

Download on the App Store